This demonstration page uses our WeatherBlox Daily Observations layout. Learn more.

Left ArrowRight Arrow

40.92501, -98.34201

Hourly Observations for February 18, 2022

Temp ( °F °C ) Dew Point ( °F °C ) Humidity (%) Winds ( mph kmh ) Pressure ( in mb ) Visibility ( mi km ) Precip ( " mm )
12:53 am 00:53 Clear 29 -1.7 -1 -18.3 27 27 SW 21 33 30.17 1022 10 16 0.00 0.00
1:53 am 01:53 Partly Cloudy 29 -1.7 5 -15 36 36 SW 18 30 30.16 1021 10 16 0.00 0.00
2:53 am 02:53 Clear 31 -0.6 11 -11.7 43 43 SW 21 33 30.11 1020 10 16 0.00 0.00
3:53 am 03:53 Partly Cloudy 31 -0.6 14 -10 49 49 SW 17 28 30.08 1019 10 16 0.00 0.00
4:53 am 04:53 Partly Cloudy 31 -0.6 15 -9.4 52 52 WSW 20 31 30.07 1018 10 16 0.00 0.00
5:53 am 05:53 Clear 29 -1.7 16 -8.9 58 58 WSW 17 28 30.09 1019 10 16 0.00 0.00
6:53 am 06:53 Clear 28 -2.2 15 -9.4 58 58 WSW 14 22 30.11 1020 10 16 0.00 0.00
7:53 am 07:53 Sunny 28 -2.2 15 -9.4 58 58 WSW 14 22 30.11 1020 10 16 0.00 0.00
8:53 am 08:53 Sunny 32 0 16 -8.9 52 52 WSW 16 26 30.11 1020 10 16 0.00 0.00
9:53 am 09:53 Sunny 42 5.6 20 -6.7 41 41 W 15 24 30.12 1020 10 16 0.00 0.00
10:53 am 10:53 Sunny 51 10.6 25 -3.9 36 36 WNW 16 26 30.10 1019 10 16 0.00 0.00
11:53 am 11:53 Sunny 54 12.2 25 -3.9 33 33 W 18 30 30.09 1019 10 16 0.00 0.00
12:53 pm 12:53 Sunny 57 13.9 25 -3.9 29 29 WNW 17 28 30.06 1018 10 16 0.00 0.00
1:53 pm 13:53 Sunny 59 15 22 -5.6 24 24 WNW 17 28 30.02 1017 10 16 0.00 0.00
2:53 pm 14:53 Sunny 61 16.1 21 -6.1 21 21 WNW 20 31 30.00 1016 10 16 0.00 0.00
3:53 pm 15:53 Mostly Cloudy 59 15 19 -7.2 21 21 NW 26 43 30.01 1016 10 16 0.00 0.00
4:53 pm 16:53 Mostly Cloudy 56 13.3 21 -6.1 26 26 NW 22 35 30.03 1017 10 16 0.00 0.00
5:53 pm 17:53 Cloudy 54 12.2 20 -6.7 26 26 NW 15 24 30.06 1018 10 16 0.00 0.00
6:53 pm 18:53 Cloudy 51 10.6 25 -3.9 36 36 N 23 37 30.13 1020 10 16 0.00 0.00
7:03 pm 19:03 Mostly Cloudy 47 8.3 27 -2.8 46 46 NNE 23 37 30.12 1020 10 16 0.00 0.00
7:53 pm 19:53 Mostly Cloudy 42 5.6 26 -3.3 53 53 N 21 33 30.22 1023 10 16 0.00 0.00
8:53 pm 20:53 Clear 39 3.9 27 -2.8 62 62 N 15 24 30.26 1025 10 16 0.00 0.00
9:53 pm 21:53 Clear 33 0.6 22 -5.6 64 64 N 21 33 30.32 1027 10 16 0.00 0.00
10:53 pm 22:53 Clear 30 -1.1 18 -7.8 61 61 N 15 24 30.36 1028 10 16 0.00 0.00
11:53 pm 23:53 Clear 28 -2.2 13 -10.6 53 53 N 9 15 30.38 1029 10 16 0.00 0.00

Powered by AerisWeather